Wind_Speed
29 29 29 30 31 31 31 29 27 28 30 30 31 28 21 16 14 12 11 11 12 14 17 19 20 19 18 18 19 20 20 19 17 17 16 16 15 14 13 12 11 10 8 7 6 6 5 3 1 2 4 5 6 5 4 3 2 1 2 3 4 4 5 5 4 4 4 3 3 2 2 3 3 4 5 5 6 6 6 6 7 7 7 7 7
30 30 31 31 32 32 31 29 28 29 31 31 30 24 18 15 13 11 10 11 13 16 18 19 18 16 16 17 19 20 20 19 19 18 18 17 16 16 16 16 15 13 11 8 6 5 4 3 2 2 4 6 7 7 5 4 4 3 2 2 2 2 2 3 3 3 2 2 2 2 2 2 3 4 4 5 5 6 6 7 8 8 7 6 6
30 32 31 31 32 31 30 28 28 30 31 31 28 21 16 14 12 11 11 13 15 18 19 17 16 15 15 16 18 19 20 20 19 19 19 19 18 18 18 18 18 17 14 11 7 4 2 1 2 3 4 6 7 8 7 6 5 4 3 1 1 0 0 1 1 1 1 1 1 1 2 2 2 2 3 4 4 5 7 8 8 8 7 5 5
32 33 32 31 30 30 29 27 28 30 31 31 24 18 16 13 11 11 13 16 18 19 18 16 15 15 15 16 17 18 19 20 20 19 19 19 20 20 20 19 18 17 15 12 10 7 3 1 3 5 6 7 8 9 8 7 6 5 5 4 3 2 2 1 2 1 1 1 0 0 1 1 1 1 2 3 4 5 7 9 9 8 7 5 4
32 33 32 30 28 29 28 26 28 30 31 28 21 17 15 12 11 12 15 18 20 19 17 15 15 15 16 17 17 18 19 20 21 20 19 18 19 20 20 19 18 16 14 12 11 9 7 5 4 5 8 9 10 10 10 9 8 7 6 6 5 4 4 3 3 3 3 2 1 0 0 1 2 1 2 3 4 5 6 9 10 10 8 5 2
31 32 30 28 28 29 28 26 28 30 30 25 18 15 13 11 11 13 17 19 19 17 15 15 16 16 17 18 19 19 20 21 22 21 19 18 18 18 18 18 18 16 15 13 11 10 9 8 7 7 8 10 11 12 11 10 9 8 8 7 6 6 6 5 5 4 4 3 2 1 0 1 3 2 1 2 3 5 6 8 10 10 9 6 4
31 31 30 27 28 30 27 26 27 29 28 21 16 14 11 10 11 15 18 19 17 15 15 16 16 17 18 19 20 20 20 20 21 22 20 18 18 18 18 18 17 17 15 14 13 12 11 10 9 9 9 10 11 12 12 11 10 9 9 9 8 9 8 7 6 5 4 3 3 2 0 2 4 2 1 1 2 4 6 7 8 9 9 7 6
31 32 30 27 28 29 26 25 26 29 25 18 14 11 10 10 12 16 18 17 15 14 15 16 16 17 19 20 20 19 19 19 21 22 20 18 18 19 18 17 17 16 15 15 15 15 14 13 12 11 9 8 9 10 11 11 10 10 10 11 11 11 10 9 8 6 4 4 4 2 1 2 5 1 2 0 1 3 5 7 8 8 9 7 5
32 32 29 27 27 27 25 23 25 27 22 15 12 9 9 10 13 16 17 16 14 14 15 15 16 17 18 20 20 19 18 20 21 22 20 19 18 18 18 17 16 16 15 16 16 17 17 17 17 15 12 6 3 6 7 8 8 9 10 11 13 13 13 12 11 9 7 6 5 3 2 2 4 1 2 1 1 2 3 5 7 8 9 7 6
32 31 28 26 27 25 23 22 25 26 19 14 10 8 8 10 13 16 16 14 14 14 14 15 16 17 18 20 20 19 19 20 22 22 20 19 18 18 17 16 16 16 16 16 17 18 19 20 21 20 19 15 8 5 6 6 5 6 7 9 10 13 14 14 13 11 9 7 6 3 2 1 2 2 3 1 2 1 0 3 5 7 8 9 7
31 30 27 26 26 24 21 20 23 23 16 12 8 7 8 10 13 15 14 14 14 13 14 15 16 17 18 19 20 20 20 21 22 22 20 19 18 17 17 16 17 16 16 16 16 18 19 21 22 24 25 24 20 14 10 6 4 3 3 5 6 8 11 12 12 11 10 7 7 4 1 2 1 2 3 3 3 1 2 3 5 6 8 9 8
30 30 27 25 25 22 19 19 22 21 14 10 7 7 8 10 13 14 13 13 13 13 13 15 17 18 19 20 21 21 21 21 21 21 20 19 18 17 17 17 18 17 17 17 17 17 19 20 21 23 26 27 26 21 16 11 8 5 2 2 3 4 6 8 9 9 8 6 6 6 1 2 1 1 2 2 2 1 1 3 4 4 5 7 7
30 29 26 25 24 20 17 17 21 18 12 9 7 6 8 10 12 13 13 13 13 12 13 15 16 18 20 21 21 21 21 21 20 20 20 19 18 18 19 19 19 19 19 19 18 17 18 19 20 21 23 25 25 22 19 16 13 10 7 3 1 2 5 6 6 5 4 4 6 6 2 1 2 2 1 1 1 2 3 3 4 4 4 4 5
30 28 26 25 22 18 15 16 20 16 10 8 6 6 8 10 11 12 13 12 12 11 12 14 16 18 20 21 21 21 21 20 20 19 19 19 19 20 20 20 20 21 21 21 20 19 17 18 19 20 21 22 22 20 18 17 15 14 11 8 5 3 5 5 4 3 3 3 4 4 2 2 4 3 2 3 4 5 6 6 6 6 5 4 4
28 26 25 23 19 16 13 16 18 14 9 7 6 6 7 9 10 12 13 12 11 10 11 13 15 18 19 21 21 21 20 20 19 19 19 19 19 20 21 21 21 21 22 22 21 21 19 18 19 21 21 21 20 19 19 18 16 14 13 11 8 5 4 4 4 3 2 2 3 3 3 4 5 5 7 9 9 9 9 9 9 8 6 5 4
27 25 24 21 17 13 12 15 16 12 7 6 5 6 7 9 10 12 12 11 10 9 10 12 15 18 19 20 21 21 21 20 19 18 18 18 19 19 20 21 22 22 22 22 21 21 21 19 19 20 21 20 20 19 19 19 18 16 14 12 10 7 4 4 4 3 3 2 3 4 5 6 8 9 10 11 11 11 9 9 9 8 7 6 4
25 24 22 19 15 11 11 15 14 9 6 5 5 5 7 9 9 11 11 10 10 9 10 11 15 17 18 20 20 20 20 20 19 18 18 18 18 19 20 21 22 22 22 22 22 21 21 21 20 20 20 21 21 20 19 19 19 18 17 15 13 11 8 5 3 3 2 2 3 4 5 7 8 9 10 11 11 11 9 8 8 7 7 6 5
24 23 21 18 13 9 11 14 12 7 5 5 5 4 7 9 9 11 10 10 10 10 11 12 15 17 18 18 18 19 20 19 18 18 18 19 19 19 20 21 22 22 22 22 22 21 21 21 21 21 21 21 21 20 20 19 19 19 18 17 16 15 13 11 8 7 5 3 2 1 1 3 4 6 7 9 9 9 8 7 7 6 6 6 6
23 22 20 16 10 8 11 13 10 6 4 5 5 5 8 8 9 10 10 10 11 11 12 13 15 17 17 17 18 19 19 18 18 18 18 19 19 19 20 21 22 22 22 23 23 22 22 21 21 21 22 22 22 21 20 19 19 18 17 16 15 15 14 13 12 11 9 8 7 5 4 3 2 2 3 4 5 7 7 6 5 5 5 6 6
21 20 18 13 8 7 10 11 8 5 4 5 5 5 8 8 9 10 10 11 11 12 12 13 16 17 17 17 18 19 19 19 19 19 19 19 19 20 20 21 22 23 23 23 24 23 23 23 22 22 22 22 23 22 21 20 20 18 17 15 14 14 13 13 11 10 9 8 7 6 5 5 5 5 5 5 4 3 5 5 4 4 4 5 5
19 18 17 11 6 7 10 9 6 4 4 6 6 6 8 8 9 9 11 12 12 12 12 13 17 17 17 18 19 19 20 20 20 20 20 20 20 21 22 23 24 24 24 24 25 25 25 24 23 23 23 22 23 23 23 22 22 20 19 18 17 16 15 14 13 11 10 9 8 8 8 8 8 8 8 8 8 8 3 2 3 3 2 3 3
18 17 16 9 4 6 9 7 5 3 5 6 6 6 7 8 10 10 11 12 12 12 12 15 17 17 18 19 19 20 20 20 21 21 21 22 22 22 24 25 26 26 26 26 27 27 27 27 27 26 26 25 25 25 25 24 23 22 21 21 20 20 19 18 16 15 14 14 13 14 13 13 13 13 12 11 10 11 9 5 1 2 2 2 3
17 17 14 7 3 6 7 5 3 4 6 7 6 6 7 9 10 10 12 12 12 13 14 16 16 17 18 19 19 19 20 20 21 22 23 24 25 25 27 27 28 28 29 30 31 30 31 33 33 34 34 33 32 32 30 29 28 27 26 25 25 24 23 22 21 20 19 20 20 20 20 19 19 18 17 15 14 12 12 10 7 4 2 2 2
17 15 11 4 2 5 6 4 3 4 7 7 6 6 8 10 11 11 12 12 13 13 15 15 16 18 18 18 19 20 20 21 21 22 23 26 27 29 30 30 30 31 33 36 38 38 40 41 42 44 45 44 44 43 42 40 39 38 37 36 35 34 33 32 30 28 27 26 25 24 23 22 21 20 19 17 16 14 13 11 10 8 6 4 3
15 12 6 0 2 5 4 3 3 6 8 7 5 7 9 11 11 11 12 12 13 14 15 15 16 18 18 19 21 22 22 23 23 23 25 27 29 31 31 32 33 35 37 39 42 44 46 48 49 50 51 50 50 50 50 49 48 47 47 46 45 44 43 43 41 39 36 34 32 30 29 28 27 25 24 22 20 18 16 13 11 9 7 6 5
12 9 2 2 3 4 3 3 4 7 8 7 5 8 11 12 12 11 11 12 13 14 15 15 17 18 19 21 22 24 26 26 26 26 27 29 31 32 33 34 36 39 41 43 45 47 48 50 51 52 52 52 52 52 52 52 51 50 50 49 48 47 47 47 46 44 43 42 41 40 39 38 37 36 35 34 32 30 27 24 19 15 11 8 6
10 4 2 3 3 3 3 3 6 8 9 6 6 9 11 12 12 11 12 13 14 15 15 16 18 19 20 21 24 27 28 29 29 29 30 31 33 34 35 38 40 42 44 46 47 48 50 50 51 51 51 51 51 51 51 51 50 49 49 49 48 48 47 47 46 45 44 44 43 43 43 43 42 41 41 41 41 40 39 37 35 32 28 23 18
6 2 4 3 3 3 3 4 8 9 8 6 7 10 12 12 12 11 12 14 15 16 17 18 19 20 21 22 24 27 29 30 30 31 31 33 34 36 38 40 42 44 45 46 47 47 48 48 48 47 46 45 45 45 45 45 45 44 45 46 46 46 46 47 46 46 45 44 43 43 43 43 42 42 42 42 43 43 43 43 42 42 40 38 34
2 5 5 3 3 3 4 6 10 10 8 7 9 11 12 13 12 12 14 16 17 18 19 20 21 22 23 24 24 25 29 30 30 31 32 34 36 37 39 41 42 43 43 43 43 43 43 42 42 41 39 38 37 38 37 38 38 39 40 41 43 43 43 44 45 45 45 45 45 44 43 42 41 41 41 42 42 42 43 43 44 44 43 43 41
6 6 5 3 4 4 5 8 11 10 8 8 10 12 13 13 13 13 16 18 19 21 21 21 23 24 25 26 26 28 30 30 30 31 32 34 36 37 38 40 41 41 40 39 38 38 37 36 35 34 33 32 32 32 32 33 34 36 36 37 39 39 40 41 42 41 42 43 44 44 43 43 42 41 40 40 40 40 40 41 42 43 43 43 42
8 7 5 4 5 4 7 10 11 10 8 9 11 12 14 14 14 15 18 20 21 22 22 22 23 25 26 27 29 31 31 31 31 31 31 32 34 35 37 38 38 37 36 34 33 33 31 30 29 28 29 28 28 29 30 31 32 33 33 35 37 37 38 39 39 38 37 38 40 40 41 41 41 40 39 39 38 38 37 37 38 39 40 41 41
9 7 5 5 6 5 8 12 11 9 8 10 11 13 15 15 15 17 19 21 22 23 22 22 23 25 26 27 29 31 31 30 31 30 30 30 31 33 35 35 35 34 32 30 29 28 26 26 25 25 25 25 25 26 27 28 29 30 31 33 35 35 36 37 36 35 34 35 36 36 37 38 38 37 37 37 37 36 36 35 34 34 35 35 36
10 7 5 6 7 6 10 12 11 9 9 11 12 14 16 16 17 18 20 22 24 24 23 22 23 24 25 26 28 29 30 30 30 30 29 29 29 30 31 31 31 30 28 27 26 24 23 23 22 22 22 22 22 23 23 24 25 26 27 30 32 34 34 34 34 33 33 33 33 33 34 35 34 34 34 34 35 35 34 33 32 32 31 31 31
9 7 6 7 7 7 11 12 10 9 10 11 13 15 17 17 18 19 21 24 25 24 23 23 23 24 25 25 27 28 29 29 29 29 28 28 27 28 28 29 28 27 25 24 23 22 21 20 20 20 19 19 19 20 20 21 21 22 24 26 29 31 32 32 32 32 32 32 32 31 32 32 32 31 31 32 32 32 32 31 31 30 30 29 29
9 7 6 7 7 9 13 12 10 9 10 12 13 16 17 18 19 20 22 25 25 24 23 23 23 24 25 25 26 27 28 28 28 27 27 26 25 25 25 25 24 22 21 20 20 19 19 18 17 17 16 16 16 17 18 18 18 19 20 22 25 27 28 29 30 31 31 31 31 30 31 31 30 29 29 30 30 30 29 29 28 28 28 28 28
8 7 7 7 7 10 14 13 10 9 11 12 14 17 18 18 20 20 22 25 25 24 23 22 23 24 24 25 25 25 26 26 26 26 25 25 23 22 21 20 19 18 18 19 19 19 19 18 17 16 15 14 14 15 15 15 16 16 17 19 21 24 25 26 27 29 30 30 30 29 30 29 28 27 28 28 29 29 28 27 27 27 26 26 26
7 7 7 6 7 11 14 13 10 9 11 13 15 18 18 19 20 20 22 24 25 24 22 22 23 23 24 24 24 24 24 24 24 23 22 22 20 19 18 17 16 18 19 20 21 21 22 22 22 21 19 17 15 14 14 14 14 15 17 18 19 20 21 23 25 27 28 28 28 28 28 28 27 26 26 27 28 28 27 26 26 26 25 25 24
7 7 6 5 7 12 14 13 11 10 11 13 15 18 19 19 20 21 22 24 24 23 21 21 23 23 23 23 23 22 22 22 22 22 21 20 19 17 17 17 17 18 19 20 21 21 22 23 24 25 25 24 22 20 18 17 16 15 16 18 18 19 19 21 23 24 25 25 26 26 26 26 26 26 26 26 26 26 26 26 25 25 25 25 24
7 6 5 5 7 12 14 13 13 12 12 13 15 19 19 19 20 21 22 23 22 21 20 21 23 23 22 22 21 21 21 21 21 21 21 19 18 18 18 17 17 17 17 18 20 20 21 22 23 24 25 27 27 26 25 23 22 21 20 20 20 20 19 20 21 22 23 23 24 24 24 24 25 25 25 25 25 25 25 25 25 25 25 25 25
7 5 5 5 8 12 13 13 14 13 13 13 15 19 20 20 20 21 22 22 21 20 20 21 23 22 21 20 19 19 19 19 20 20 19 18 18 17 16 16 15 16 16 17 18 19 20 21 21 21 23 24 25 27 27 27 26 26 25 24 23 23 22 22 22 22 22 22 22 22 22 22 22 22 23 23 23 23 23 24 24 25 25 25 26
7 5 5 6 9 12 13 13 14 14 14 14 16 18 21 21 21 21 22 22 20 20 20 21 22 21 19 18 17 18 17 18 18 17 17 16 16 15 14 14 13 14 15 15 16 17 18 19 20 20 21 22 23 24 26 27 27 27 26 26 25 24 23 23 22 21 21 21 20 20 20 20 20 21 21 21 21 22 23 23 24 24 25 25 26
8 6 5 7 11 13 14 14 15 16 15 15 16 19 21 21 21 22 22 21 19 18 19 20 20 19 18 17 17 17 16 16 15 15 15 14 14 12 11 11 11 12 13 13 15 16 17 18 19 19 20 21 22 22 23 25 26 26 25 25 24 23 23 22 21 21 20 20 20 19 19 20 20 20 21 21 21 22 22 23 24 25 25 26 26
9 7 5 7 12 14 15 14 16 16 15 15 16 18 21 21 21 21 21 20 17 16 17 18 18 18 16 16 16 17 16 15 14 13 13 12 12 10 10 10 10 11 12 13 14 15 16 17 18 19 19 20 21 22 22 22 23 23 22 22 22 21 21 21 20 20 20 20 20 20 20 20 21 21 21 21 22 22 23 24 24 25 25 26 26
10 8 5 6 13 16 16 15 15 16 16 15 16 18 20 22 21 21 20 19 17 16 17 18 18 16 16 16 16 16 15 14 13 12 11 10 10 9 8 8 9 10 11 12 13 14 15 16 17 18 19 19 20 21 21 22 22 21 21 21 20 20 20 20 19 19 19 19 20 20 20 20 21 21 21 22 23 23 24 24 25 25 26 26 27
11 10 8 7 12 17 17 16 15 17 17 17 17 18 20 21 21 21 20 18 17 16 17 17 17 16 16 16 15 14 14 14 13 11 10 9 9 8 8 8 9 9 10 11 12 12 13 15 16 17 18 18 19 20 21 21 21 21 21 21 21 21 20 20 20 20 20 19 19 20 20 21 21 22 22 23 23 24 25 25 25 26 26 27 27
12 12 10 9 13 19 20 18 17 18 18 18 18 19 20 21 21 20 20 19 18 17 17 17 17 17 17 15 14 14 14 13 13 11 10 9 8 7 7 7 8 8 9 10 10 11 12 13 14 16 16 17 18 19 19 20 20 20 21 22 22 22 22 21 21 21 21 21 21 22 22 22 23 23 24 24 25 25 26 26 26 27 27 27 27
13 13 12 11 14 21 22 20 18 18 19 19 19 20 21 22 22 22 21 20 18 17 17 18 18 18 17 15 14 14 13 13 12 11 10 9 8 7 6 6 6 7 7 8 9 10 11 11 13 14 15 16 17 17 17 18 18 18 19 20 21 21 22 22 21 21 21 22 22 23 23 24 25 25 25 26 26 26 27 27 27 28 28 28 28
13 14 13 12 14 19 22 21 20 19 19 20 20 21 22 23 23 23 21 19 17 17 18 19 19 18 17 16 15 15 14 13 12 11 10 9 7 6 6 6 5 5 5 7 8 8 9 10 11 12 13 14 15 16 16 17 17 18 18 18 19 20 21 21 21 21 21 21 22 22 23 24 24 25 26 27 27 27 28 28 28 28 28 29 30
13 15 15 13 13 18 22 22 21 20 21 20 21 22 23 24 24 23 21 19 18 17 18 19 19 19 18 17 16 15 15 14 13 11 10 9 8 7 6 5 5 3 3 5 6 7 7 8 10 11 12 13 14 14 15 16 17 18 18 18 19 19 20 21 21 21 22 22 22 23 24 24 25 26 27 28 28 29 29 29 29 29 30 31 32
15 16 16 15 15 18 23 24 23 22 22 22 22 23 23 23 23 22 21 20 19 18 17 18 19 18 18 17 16 15 14 14 13 12 10 9 8 7 6 6 5 3 1 4 5 6 6 8 9 10 11 11 12 13 15 16 16 17 18 19 20 20 21 21 22 22 23 23 24 25 25 26 27 27 28 29 30 30 30 31 32 33 33 34 35
17 17 18 18 17 19 23 25 24 24 24 24 23 23 23 22 22 22 21 21 20 19 18 17 18 18 17 17 16 15 14 13 13 13 11 10 9 8 7 7 6 4 1 3 5 5 6 7 8 9 10 10 11 12 14 15 16 17 18 19 20 21 22 22 22 23 23 24 25 26 26 27 28 29 30 31 31 32 33 34 35 36 37 38 38
Wind_Direction
347 348 346 344 342 341 340 340 345 348 346 343 341 342 346 354 5 12 17 18 10 3 358 352 349 352 1 10 14 17 20 20 22 25 30 33 35 36 36 35 32 28 27 31 38 41 37 29 343 218 208 205 202 198 187 171 150 114 102 102 99 103 104 106 101 91 89 87 86 88 85 76 74 67 56 45 35 25 12 2 350 335 312 284 268
349 349 347 346 343 342 342 344 349 349 346 344 344 347 353 2 11 17 23 20 11 5 359 353 354 3 15 24 27 28 31 32 34 37 39 40 42 44 44 44 43 41 37 33 30 27 20 5 335 261 226 215 210 204 193 179 163 149 136 122 112 103 104 113 107 103 100 89 79 79 85 83 70 60 56 42 29 22 14 10 0 349 327 293 271
351 351 349 346 344 343 343 347 351 349 346 345 347 352 359 7 14 21 24 17 11 6 358 357 6 20 30 34 33 32 34 36 39 41 43 45 46 46 47 47 47 46 44 42 37 30 5 297 268 252 237 225 218 212 205 194 182 171 165 189 202 195 168 127 124 140 136 112 79 82 92 92 70 51 46 31 22 18 18 14 4 357 343 312 283
349 350 349 347 346 345 346 350 352 350 347 346 351 357 3 13 19 23 20 14 9 3 1 8 22 35 41 40 35 33 34 35 37 40 43 45 47 48 48 48 46 45 43 41 38 34 24 311 252 240 233 228 223 219 216 210 203 193 186 200 218 227 234 257 267 262 260 287 326 149 121 88 49 29 34 15 10 15 20 15 3 0 355 342 306
347 350 349 349 349 348 348 352 352 350 347 349 356 1 9 19 23 24 19 13 6 3 9 22 36 44 45 40 35 32 32 33 35 36 40 44 45 47 47 45 43 40 37 33 28 21 11 350 303 265 247 238 231 226 223 219 219 215 207 212 222 229 232 248 265 271 274 272 287 203 99 49 11 357 27 1 357 14 22 16 7 5 7 11 355
348 350 351 351 351 349 349 352 352 349 348 352 0 5 16 25 27 24 18 11 6 10 22 34 45 47 43 39 34 31 31 32 33 33 36 42 43 43 43 41 37 34 31 25 18 9 359 344 323 297 273 256 243 236 231 227 223 223 223 223 227 233 235 246 254 266 271 255 232 188 44 12 353 324 14 358 350 11 20 14 8 12 19 29 33
348 350 351 352 351 350 350 353 352 350 349 355 4 10 24 31 29 25 18 12 14 24 35 46 50 47 42 38 33 32 32 31 32 32 35 40 42 41 40 38 33 30 28 22 16 10 1 348 333 315 293 271 254 242 236 232 229 229 232 232 235 240 240 242 246 263 273 256 240 237 285 1 355 301 209 354 348 11 16 8 7 20 31 32 30
346 347 349 349 348 349 349 352 352 350 351 360 8 17 33 36 31 25 18 18 27 41 50 55 53 47 42 37 34 34 34 33 32 34 38 42 42 40 38 35 31 29 28 25 22 19 12 6 1 349 327 288 259 242 232 229 229 231 236 238 238 242 242 241 244 253 259 261 248 252 287 355 0 314 206 304 12 20 13 3 8 27 38 33 27
340 343 345 345 347 348 348 351 352 350 353 5 14 25 40 40 33 26 22 29 46 56 62 61 53 47 42 37 36 37 37 36 35 38 43 46 44 42 39 35 33 32 31 29 28 28 25 24 26 23 20 8 266 223 210 209 215 221 230 236 238 238 239 240 243 245 248 251 235 254 295 321 1 200 192 166 156 42 17 354 4 28 39 36 32
336 340 342 343 345 347 347 351 352 350 356 10 20 34 46 43 34 28 30 46 62 67 68 61 52 46 40 37 38 41 42 40 40 43 47 49 48 45 42 40 38 36 36 34 35 39 36 38 43 44 46 54 72 121 153 168 181 200 217 227 234 235 236 238 240 242 244 242 225 245 303 326 16 190 201 208 192 104 345 328 3 29 33 33 36
336 339 340 341 345 347 347 352 353 351 358 14 25 41 51 45 36 33 41 62 72 74 70 58 51 45 39 36 39 44 44 43 43 46 50 53 52 48 46 45 45 44 42 41 42 47 47 49 54 57 59 63 71 85 99 113 131 156 201 219 229 234 233 232 234 238 241 236 219 214 44 59 45 215 218 220 206 183 232 316 5 26 26 28 35
336 338 339 341 344 346 347 353 353 351 1 17 31 47 54 47 38 40 53 72 78 79 69 57 51 45 39 38 41 43 44 44 44 47 51 56 58 55 53 51 50 50 48 46 47 53 55 57 60 63 67 69 71 75 78 81 89 103 121 198 225 233 224 218 223 231 233 224 208 201 176 35 65 202 206 196 201 213 262 324 346 5 16 22 31
333 337 337 340 343 345 347 354 354 352 4 21 36 53 57 48 41 48 61 77 82 81 68 57 51 44 40 39 39 40 42 44 46 49 53 58 62 61 59 57 54 52 50 49 50 54 58 60 63 65 69 72 74 75 75 74 77 85 86 91 145 200 193 192 202 213 215 205 204 208 244 298 131 138 139 113 44 357 347 337 323 330 342 357 21
330 334 336 338 342 344 348 355 354 353 9 25 44 62 59 48 44 53 66 78 85 80 66 56 48 40 37 37 38 38 40 43 46 50 54 59 61 61 61 60 58 55 53 52 52 53 58 62 64 67 69 71 74 75 73 70 70 75 75 72 76 119 161 170 179 189 193 199 212 223 250 215 168 174 277 308 317 322 322 320 316 317 319 324 349
329 332 334 337 341 344 351 357 354 355 13 30 55 68 61 48 47 58 68 78 84 79 65 54 43 35 32 34 36 37 40 42 46 51 56 60 61 61 61 61 59 57 55 53 53 53 58 63 66 67 68 68 68 69 69 67 67 70 70 67 70 88 133 153 162 174 189 209 229 239 240 221 221 252 281 294 300 302 302 304 306 306 307 310 318
330 332 334 337 341 346 355 359 354 358 18 38 64 75 60 47 50 61 69 76 81 77 64 50 36 29 29 32 35 39 41 42 48 54 59 63 63 60 60 61 59 58 57 56 55 54 57 62 66 66 64 65 67 68 68 67 67 70 70 69 71 82 110 153 172 183 197 223 254 261 258 250 255 266 275 283 287 288 287 286 285 285 285 286 290
333 334 335 338 341 349 1 360 355 1 26 48 75 80 56 47 53 63 70 75 74 71 58 44 31 25 28 32 35 41 43 45 52 58 63 65 65 62 61 61 60 60 59 58 58 57 57 58 62 63 63 64 68 70 71 70 70 71 71 71 74 78 87 106 140 165 198 244 274 276 272 266 265 269 274 276 276 275 270 264 261 259 262 265 265
334 335 336 338 343 356 3 359 355 6 35 58 83 78 53 50 57 65 70 72 68 62 50 38 29 24 28 33 38 45 46 49 55 61 65 67 68 66 64 63 62 61 61 61 61 60 58 57 59 61 62 64 67 69 72 74 73 71 68 69 71 73 78 82 88 93 97 96 77 34 318 288 278 277 278 276 273 270 265 257 249 245 249 254 255
333 335 336 338 345 2 5 358 357 11 45 69 89 74 53 55 63 68 71 68 63 56 45 36 27 24 31 37 44 50 49 50 55 61 66 68 68 67 66 66 65 63 63 62 62 62 61 59 60 61 62 64 66 66 70 74 71 70 68 66 66 68 73 78 82 86 89 90 85 76 64 48 27 351 322 303 284 269 262 258 250 244 245 248 252
334 336 336 339 350 8 5 358 358 19 59 80 94 75 54 61 71 72 72 68 62 54 45 33 24 26 38 46 52 55 53 53 56 61 66 68 68 68 68 68 67 66 65 64 64 63 62 61 61 61 61 62 63 64 67 68 66 67 68 65 62 60 63 67 70 71 71 71 69 61 50 41 34 29 22 17 4 313 260 249 250 250 248 248 253
336 337 336 339 356 11 3 359 4 34 75 89 101 76 55 68 77 76 74 69 63 56 46 32 26 35 49 56 60 60 57 58 59 64 68 69 69 70 70 69 69 68 68 68 66 64 62 62 62 62 62 62 62 63 63 62 61 63 64 63 60 59 57 57 58 57 55 53 52 46 40 36 33 30 29 31 31 26 10 256 247 258 263 264 267
336 335 334 336 2 12 4 3 13 54 88 99 104 71 60 78 81 79 76 71 66 60 48 34 34 48 60 65 65 62 61 62 63 67 71 72 71 71 71 71 71 72 72 72 70 68 66 64 62 61 61 62 62 63 62 61 61 61 61 61 60 59 59 58 57 57 56 54 53 52 50 46 43 42 42 43 39 37 38 33 341 278 277 283 292
335 332 330 331 15 14 5 11 29 81 99 110 107 67 69 84 85 83 79 76 71 64 49 39 47 60 66 69 67 64 64 66 66 70 72 72 72 72 72 73 75 76 77 77 77 75 73 71 67 66 67 67 66 67 67 65 64 64 64 64 63 63 62 62 62 62 62 61 61 61 60 57 55 55 54 53 50 48 47 47 46 35 352 304 305
335 330 325 327 43 17 9 22 52 101 108 118 104 70 81 88 86 86 83 81 75 64 51 48 59 66 69 71 70 70 70 70 70 71 73 74 75 75 76 77 79 81 82 82 83 83 82 81 78 76 75 74 73 72 72 71 70 70 69 69 68 67 67 67 67 67 67 67 65 64 62 60 57 55 53 51 48 45 43 44 46 48 48 47 46
335 326 320 349 55 23 22 39 86 113 117 123 99 79 90 89 87 87 86 84 77 65 56 61 70 71 74 76 77 77 76 76 76 77 78 77 78 79 80 82 83 85 86 86 88 88 87 86 85 82 80 77 76 75 75 74 73 71 70 70 69 69 68 68 68 68 68 67 66 65 63 61 58 56 53 50 46 43 39 36 34 34 35 38 39
332 320 303 126 55 37 45 65 109 121 123 125 96 90 94 91 88 87 88 87 78 69 66 74 78 78 80 82 83 82 81 82 82 83 83 82 82 83 85 87 88 89 89 90 90 90 89 88 86 84 82 81 79 78 77 76 74 72 71 70 69 69 69 68 68 68 68 67 67 66 64 63 61 60 59 57 56 55 53 52 50 46 41 31 16
327 303 171 120 58 59 74 94 122 125 129 125 98 98 98 93 90 88 91 89 81 76 79 85 83 83 84 87 88 85 84 85 84 85 86 86 87 88 90 91 92 92 93 92 92 91 89 88 85 83 81 80 80 78 77 75 73 70 69 68 67 68 68 69 69 68 68 68 68 67 66 64 63 62 61 61 60 60 59 60 59 58 57 54 49
313 219 150 108 70 80 91 114 127 129 134 123 103 105 101 95 92 91 94 91 87 88 93 93 88 89 89 91 92 87 85 85 85 87 89 90 91 93 94 95 95 95 94 93 91 90 88 86 82 79 76 75 75 74 72 70 67 63 62 62 62 64 66 67 67 67 66 66 67 67 67 66 64 63 62 61 60 59 58 59 59 59 59 59 58
232 166 138 103 89 96 109 127 131 135 138 120 110 110 103 99 95 94 97 96 97 101 102 97 93 92 90 91 93 90 87 86 86 88 91 94 96 97 97 97 97 95 93 90 88 87 85 82 79 75 71 68 67 67 64 62 60 57 56 56 56 59 62 64 64 65 64 63 63 63 64 64 64 63 62 61 59 58 57 56 56 56 56 57 58
169 149 128 111 106 105 119 132 136 140 139 120 116 113 107 102 97 98 102 103 106 109 107 101 97 94 91 92 93 93 90 86 86 89 93 96 98 99 98 98 97 93 89 86 84 84 81 78 75 72 69 65 62 60 57 54 54 54 53 52 53 56 59 61 61 62 62 62 61 61 60 61 61 60 60 60 59 58 57 56 55 55 54 54 55
157 138 125 119 112 113 128 136 140 144 136 121 121 117 110 104 100 104 107 109 112 114 111 105 100 96 94 94 95 95 92 89 88 90 94 97 99 99 99 98 95 91 86 82 80 78 77 73 69 68 67 64 60 57 53 50 50 50 49 49 51 55 57 58 59 59 61 61 61 60 60 60 60 59 58 58 57 57 56 56 56 56 55 55 54
149 131 127 122 114 118 135 141 145 144 132 124 126 119 111 105 106 111 112 113 117 118 115 109 102 98 97 97 97 96 94 92 91 92 96 98 98 99 99 97 94 90 83 79 75 71 69 66 62 61 62 62 60 56 53 50 48 46 45 45 48 53 55 55 56 58 60 61 61 61 62 62 61 60 59 58 57 57 56 56 55 56 56 57 56
146 129 126 122 114 124 140 145 148 142 131 128 129 121 112 110 113 116 115 117 121 122 118 110 104 101 100 100 100 99 97 95 94 95 97 98 98 100 99 96 92 88 81 77 74 69 65 62 57 56 58 59 59 57 54 51 48 45 43 42 43 47 49 51 53 56 58 60 61 63 64 64 63 62 60 59 58 57 57 57 56 56 57 58 59
143 128 125 122 117 132 144 147 148 142 132 133 132 122 115 115 119 120 119 121 124 124 119 111 105 105 104 104 103 102 100 98 97 98 98 97 99 101 99 95 90 86 80 75 71 67 63 59 55 55 56 56 55 55 53 50 47 45 41 39 39 41 42 45 48 52 55 56 59 62 63 63 62 61 60 59 57 57 56 56 56 57 57 58 60
142 128 125 121 122 140 148 149 150 142 135 139 136 125 119 122 124 123 124 126 127 125 120 113 108 108 108 107 105 103 101 100 100 100 100 99 101 102 99 94 89 82 76 70 66 63 59 55 51 50 52 52 52 51 50 47 44 43 40 38 37 36 37 38 41 46 50 51 54 59 61 60 59 58 57 56 54 53 53 53 53 53 54 55 56
139 128 124 119 126 147 152 151 151 142 139 144 139 128 125 128 129 126 128 131 131 129 122 116 114 111 110 109 107 104 104 103 102 101 101 102 102 102 97 90 84 77 72 69 68 65 62 58 53 48 46 45 44 44 43 40 38 36 36 36 35 34 33 34 37 41 44 46 50 55 57 56 56 54 53 51 50 48 48 48 48 48 49 50 51
134 127 123 119 134 153 156 152 150 144 144 149 143 133 131 135 134 131 131 133 135 133 125 120 119 115 112 110 109 107 107 106 105 104 103 102 101 98 92 85 80 76 74 73 72 70 67 63 60 57 54 48 43 38 34 31 29 28 30 32 32 31 30 31 35 39 41 44 49 52 53 52 51 49 48 46 44 43 43 43 43 43 43 43 44
133 125 119 118 145 161 162 154 150 147 147 152 147 137 136 140 139 137 136 135 137 136 129 126 125 121 115 113 111 110 110 109 107 106 103 101 98 95 91 86 82 79 76 74 72 69 66 63 61 60 59 57 53 49 45 43 40 36 34 33 33 32 30 32 35 38 41 44 47 49 48 47 45 44 43 41 39 39 39 39 39 38 37 37 36
134 124 118 123 153 170 168 157 151 149 150 155 152 142 140 143 142 141 141 139 138 137 133 131 130 126 120 118 116 114 113 111 108 105 102 100 98 94 90 86 82 79 75 72 70 67 64 61 59 58 57 57 55 55 54 54 53 51 49 46 43 41 38 37 38 40 42 43 44 44 43 42 40 39 38 37 35 34 35 35 35 34 34 33 31
140 130 123 127 155 176 176 162 152 151 153 159 157 147 144 147 145 144 144 141 140 137 135 135 134 131 126 123 122 119 117 114 110 107 104 102 98 92 88 83 79 76 72 69 67 64 62 60 58 57 56 55 54 54 54 54 54 54 54 54 53 51 49 46 44 44 45 44 43 42 41 40 39 38 36 35 32 30 30 31 31 31 31 30 28
152 142 134 136 155 179 183 166 155 154 157 163 163 153 148 151 150 148 147 144 141 140 139 138 138 137 133 129 129 127 122 118 114 111 108 103 98 93 88 83 78 74 70 66 64 61 60 60 58 55 54 54 53 53 53 54 53 53 53 53 53 53 51 50 48 47 46 44 43 41 39 38 37 36 35 33 31 29 28 28 28 28 28 28 27
165 155 152 148 156 180 188 174 162 161 163 167 167 160 154 156 156 154 155 152 149 147 145 143 142 142 139 137 138 136 129 124 120 116 113 109 104 98 91 85 79 73 69 65 62 60 59 59 58 55 53 51 51 51 51 52 52 51 50 51 51 50 49 47 45 44 42 41 39 37 35 34 33 33 32 31 29 27 26 25 25 24 24 24 23
175 163 162 160 162 181 195 185 171 166 167 170 170 166 160 160 162 161 161 161 158 157 155 153 149 146 145 143 144 143 137 133 129 124 121 118 112 104 94 86 79 73 66 62 61 60 59 59 58 56 53 51 50 49 48 49 50 48 47 48 49 49 47 44 42 39 37 35 33 31 29 28 28 26 26 25 23 21 20 19 18 17 17 16 16
184 170 166 175 169 178 199 197 179 169 168 171 172 172 167 164 167 167 166 166 164 162 162 162 159 154 151 150 150 149 147 143 140 137 134 129 120 111 97 85 79 71 63 59 58 60 60 58 58 57 55 53 51 49 47 46 47 45 43 42 44 44 43 41 38 35 33 30 27 25 23 21 20 18 16 15 14 13 12 11 9 8 8 8 7
192 179 171 183 174 176 197 205 187 174 172 173 175 176 173 170 171 172 169 168 166 164 165 166 167 164 159 158 158 157 156 151 148 147 144 137 128 117 103 89 80 69 58 54 54 57 59 59 58 57 56 54 52 50 47 45 44 42 39 38 37 37 37 36 34 31 28 25 22 20 17 15 13 12 10 8 7 6 5 4 2 1 1 0 359
201 192 179 183 180 178 194 205 194 183 179 176 177 179 177 174 174 175 174 172 171 171 172 172 172 171 168 167 169 168 164 160 156 154 151 147 138 126 110 97 85 69 55 50 51 55 56 56 56 55 54 52 51 49 47 46 43 40 36 34 31 30 31 31 30 27 24 20 18 16 14 11 10 9 8 6 4 3 1 360 358 357 356 355 353
209 205 193 187 187 184 192 203 199 191 186 181 181 181 181 181 179 179 179 178 178 179 181 181 181 179 179 178 178 177 175 171 166 162 161 158 151 140 122 108 93 73 55 46 47 51 54 53 53 51 48 46 45 43 42 41 39 36 33 30 26 23 22 22 23 22 19 16 14 12 10 9 8 7 5 3 3 1 359 357 356 355 353 351 350
214 215 207 195 194 192 193 200 201 195 191 189 186 185 186 186 183 181 181 182 184 185 185 186 187 187 187 186 185 184 186 184 180 175 172 168 164 157 140 126 113 86 59 46 42 46 50 50 48 46 43 39 37 34 32 32 31 28 27 25 22 18 16 14 13 13 12 10 9 7 6 5 4 3 2 1 0 359 357 355 353 351 349 348 346
216 220 218 204 198 200 197 199 202 198 196 195 192 191 192 190 186 184 183 186 189 189 188 188 190 191 191 192 191 192 194 195 195 191 186 181 179 173 161 152 148 121 65 47 42 42 44 44 42 41 37 33 30 27 26 25 24 21 20 19 17 15 12 10 8 6 6 4 4 3 1 0 360 359 358 357 356 355 353 350 348 346 344 343 341
217 219 222 213 202 201 200 200 201 201 200 201 199 198 198 194 189 187 187 190 192 192 191 191 192 193 195 197 197 199 201 203 204 204 201 197 196 190 180 177 181 176 49 32 32 33 33 33 33 30 29 26 23 22 21 20 18 16 15 14 13 10 8 6 4 2 2 0 359 359 358 357 356 355 354 352 351 350 348 345 343 342 340 339 336
221 219 222 222 212 204 202 201 200 202 204 204 204 205 203 198 193 191 192 195 197 198 197 197 196 196 199 201 202 204 207 209 210 211 211 210 210 205 197 196 202 209 259 1 11 16 19 20 19 17 17 16 16 16 15 14 12 10 9 8 6 5 3 1 0 359 358 357 356 355 354 353 353 351 350 348 347 345 343 341 340 338 336 334 332
Height
10990 10988 10985 10983 10980 10978 10977 10975 10973 10971 10969 10967 10964 10962 10960 10958 10957 10956 10955 10954 10953 10951 10950 10948 10947 10945 10944 10942 10940 10938 10936 10933 10931 10929 10928 10926 10925 10924 10923 10923 10922 10922 10921 10921 10921 10921 10921 10921 10921 10921 10921 10922 10923 10923 10924 10925 10925 10925 10926 10927 10927 10927 10928 10928 10928 10929 10929 10929 10930 10930 10931 10931 10932 10932 10932 10931 10931 10930 10930 10930 10929 10928 10927 10927 10927
10989 10987 10984 10982 10979 10977 10975 10973 10971 10969 10968 10965 10963 10961 10960 10959 10958 10957 10956 10955 10954 10952 10951 10949 10948 10946 10945 10943 10942 10940 10937 10935 10933 10931 10930 10928 10927 10926 10925 10924 10923 10922 10922 10922 10922 10922 10922 10922 10922 10922 10922 10922 10923 10923 10924 10924 10925 10925 10926 10927 10927 10928 10928 10929 10929 10930 10930 10930 10930 10931 10931 10932 10932 10932 10932 10932 10931 10931 10930 10929 10929 10928 10927 10927 10926
10988 10986 10984 10982 10979 10976 10974 10971 10970 10968 10966 10964 10962 10961 10960 10958 10957 10957 10956 10955 10954 10952 10951 10950 10948 10947 10946 10945 10943 10941 10939 10937 10935 10933 10931 10930 10929 10927 10926 10925 10925 10924 10924 10924 10924 10924 10923 10923 10923 10922 10922 10922 10923 10923 10924 10924 10925 10926 10926 10927 10928 10928 10929 10930 10930 10930 10930 10931 10931 10931 10932 10932 10932 10932 10932 10932 10931 10931 10930 10929 10929 10927 10927 10926 10926
10987 10985 10983 10982 10979 10976 10974 10971 10969 10967 10966 10964 10962 10961 10960 10958 10957 10956 10955 10954 10952 10952 10951 10950 10949 10948 10947 10946 10945 10943 10941 10939 10937 10934 10933 10931 10930 10929 10928 10927 10926 10926 10925 10925 10924 10924 10924 10923 10922 10922 10922 10922 10923 10923 10924 10924 10925 10926 10927 10927 10928 10929 10929 10930 10930 10930 10931 10931 10931 10932 10932 10932 10932 10932 10932 10932 10931 10931 10930 10930 10929 10927 10927 10926 10926
10987 10985 10983 10981 10979 10976 10974 10972 10970 10968 10966 10963 10962 10961 10960 10959 10958 10956 10955 10953 10952 10951 10950 10950 10949 10949 10948 10947 10946 10944 10942 10940 10938 10936 10934 10933 10931 10930 10929 10929 10928 10927 10926 10925 10925 10924 10923 10922 10922 10921 10921 10921 10922 10922 10923 10924 10925 10926 10926 10927 10928 10928 10929 10929 10930 10930 10931 10931 10932 10932 10932 10932 10932 10932 10932 10932 10931 10931 10931 10930 10929 10928 10927 10926 10926
10986 10984 10982 10980 10978 10976 10974 10972 10970 10968 10966 10964 10962 10962 10960 10959 10958 10957 10955 10954 10952 10951 10951 10950 10949 10949 10948 10947 10946 10944 10942 10940 10938 10937 10935 10934 10933 10932 10931 10930 10929 10928 10927 10926 10925 10924 10923 10922 10921 10920 10920 10920 10921 10921 10922 10924 10924 10925 10926 10926 10927 10928 10929 10929 10930 10930 10931 10931 10932 10932 10932 10932 10932 10932 10932 10931 10931 10931 10931 10930 10929 10928 10927 10926 10926
10985 10983 10982 10980 10978 10976 10974 10972 10971 10968 10966 10964 10963 10962 10961 10960 10959 10958 10956 10955 10954 10953 10952 10951 10951 10950 10949 10948 10946 10945 10943 10941 10939 10938 10936 10935 10934 10933 10932 10931 10930 10929 10928 10927 10926 10924 10923 10922 10921 10920 10919 10919 10919 10920 10921 10923 10924 10925 10925 10926 10927 10928 10928 10929 10930 10930 10931 10931 10932 10932 10932 10933 10932 10931 10931 10931 10931 10931 10931 10930 10929 10928 10927 10927 10926
10984 10983 10981 10979 10978 10976 10974 10973 10971 10969 10967 10965 10964 10963 10962 10962 10961 10959 10958 10957 10956 10955 10954 10953 10953 10952 10951 10949 10947 10946 10944 10942 10940 10938 10937 10935 10934 10933 10932 10931 10931 10930 10929 10928 10926 10925 10924 10922 10921 10919 10918 10917 10917 10918 10920 10922 10923 10924 10925 10926 10927 10927 10928 10929 10929 10930 10931 10931 10932 10932 10933 10933 10932 10931 10931 10932 10932 10931 10931 10930 10929 10928 10927 10927 10926
10984 10982 10981 10979 10978 10976 10974 10973 10971 10970 10968 10967 10966 10965 10964 10963 10962 10961 10960 10959 10958 10957 10957 10956 10955 10954 10952 10950 10949 10947 10945 10943 10941 10939 10938 10937 10936 10935 10934 10933 10932 10931 10930 10929 10927 10926 10924 10923 10921 10919 10917 10915 10915 10917 10920 10922 10923 10924 10925 10925 10926 10927 10928 10928 10929 10930 10931 10932 10932 10933 10933 10932 10932 10931 10931 10932 10932 10932 10932 10930 10929 10928 10927 10927 10927
10983 10982 10980 10978 10977 10975 10974 10973 10971 10970 10969 10968 10967 10966 10965 10964 10963 10963 10962 10961 10960 10959 10959 10958 10957 10955 10954 10952 10950 10948 10947 10945 10943 10941 10940 10938 10937 10936 10936 10935 10934 10932 10931 10930 10929 10927 10926 10924 10922 10920 10918 10916 10915 10917 10920 10922 10923 10924 10924 10925 10926 10926 10927 10928 10929 10930 10931 10931 10932 10933 10932 10932 10931 10931 10932 10932 10932 10932 10932 10930 10929 10927 10927 10927 10927
10982 10981 10979 10978 10976 10975 10974 10973 10972 10970 10969 10968 10968 10967 10967 10966 10965 10964 10963 10962 10961 10961 10960 10959 10958 10957 10955 10954 10952 10950 10948 10947 10945 10943 10942 10941 10940 10939 10938 10937 10935 10934 10933 10932 10930 10929 10927 10926 10924 10922 10920 10918 10918 10919 10921 10923 10924 10924 10925 10925 10925 10926 10926 10927 10928 10929 10930 10931 10932 10933 10932 10932 10931 10931 10932 10932 10932 10932 10932 10930 10929 10927 10927 10928 10927
10982 10980 10978 10977 10976 10974 10973 10972 10972 10971 10970 10969 10969 10968 10967 10967 10966 10965 10964 10963 10963 10962 10962 10961 10959 10958 10957 10955 10953 10951 10950 10948 10947 10946 10945 10944 10943 10941 10940 10939 10938 10936 10935 10933 10932 10930 10929 10928 10926 10925 10923 10922 10921 10922 10923 10924 10924 10924 10925 10925 10925 10925 10926 10927 10928 10929 10930 10931 10932 10933 10933 10932 10931 10931 10932 10932 10932 10932 10932 10931 10930 10929 10928 10928 10928
10981 10979 10977 10976 10975 10974 10973 10972 10971 10971 10970 10970 10969 10969 10968 10967 10967 10966 10965 10964 10964 10964 10963 10962 10961 10960 10958 10957 10955 10953 10951 10950 10949 10947 10946 10945 10945 10943 10942 10941 10940 10938 10936 10935 10933 10932 10931 10930 10928 10927 10926 10925 10924 10925 10925 10926 10925 10925 10925 10925 10925 10925 10926 10927 10928 10929 10930 10931 10932 10933 10933 10933 10932 10931 10932 10932 10932 10932 10931 10931 10931 10930 10929 10929 10929
10979 10978 10976 10975 10974 10973 10972 10972 10971 10971 10970 10970 10970 10969 10969 10968 10967 10966 10965 10965 10965 10965 10964 10963 10962 10961 10960 10958 10956 10954 10952 10951 10950 10949 10947 10946 10946 10944 10943 10943 10942 10940 10938 10937 10935 10934 10933 10931 10930 10929 10928 10927 10927 10927 10927 10927 10927 10926 10926 10926 10926 10926 10927 10928 10929 10930 10931 10931 10932 10933 10933 10933 10933 10932 10932 10932 10932 10931 10931 10931 10931 10931 10930 10930 10929
10978 10976 10975 10974 10973 10972 10972 10971 10971 10970 10970 10970 10970 10969 10969 10969 10968 10967 10966 10966 10966 10966 10966 10965 10964 10963 10961 10959 10957 10955 10953 10952 10951 10950 10949 10948 10947 10946 10945 10944 10943 10941 10940 10938 10937 10936 10934 10933 10932 10931 10930 10929 10929 10928 10928 10928 10928 10928 10927 10927 10927 10928 10928 10929 10930 10930 10931 10931 10932 10933 10933 10933 10933 10933 10932 10932 10931 10931 10931 10931 10930 10930 10930 10930 10929
10977 10975 10974 10973 10972 10972 10971 10971 10971 10970 10970 10970 10970 10970 10970 10969 10968 10967 10967 10967 10967 10967 10967 10966 10965 10964 10962 10960 10958 10956 10955 10953 10952 10951 10950 10949 10948 10948 10947 10946 10944 10943 10942 10940 10939 10937 10936 10935 10934 10933 10932 10931 10930 10930 10930 10930 10929 10929 10929 10929 10929 10929 10929 10930 10930 10931 10931 10932 10932 10932 10933 10933 10933 10933 10932 10932 10931 10931 10930 10930 10930 10930 10930 10930 10929
10976 10974 10973 10972 10972 10971 10971 10970 10970 10970 10970 10970 10971 10971 10971 10970 10969 10968 10968 10968 10968 10968 10967 10967 10966 10965 10963 10961 10959 10958 10956 10955 10954 10953 10952 10951 10950 10949 10948 10947 10946 10945 10943 10942 10941 10940 10938 10937 10936 10935 10934 10933 10932 10932 10931 10932 10931 10931 10931 10930 10930 10930 10930 10931 10931 10932 10932 10932 10932 10932 10932 10932 10933 10932 10932 10931 10931 10930 10930 10930 10930 10930 10930 10930 10929
10975 10974 10972 10972 10971 10971 10970 10970 10970 10970 10971 10971 10971 10971 10971 10970 10970 10969 10969 10969 10969 10968 10968 10968 10967 10966 10964 10962 10961 10959 10958 10957 10956 10955 10954 10953 10952 10951 10949 10948 10947 10946 10945 10944 10943 10941 10940 10939 10938 10937 10936 10935 10934 10934 10933 10933 10933 10933 10933 10933 10932 10932 10932 10932 10932 10933 10933 10933 10933 10932 10932 10932 10932 10932 10932 10931 10931 10930 10930 10930 10930 10930 10930 10930 10930
10974 10973 10972 10971 10971 10970 10970 10970 10971 10971 10971 10972 10972 10972 10971 10971 10970 10970 10970 10969 10969 10969 10969 10969 10968 10966 10965 10963 10962 10960 10959 10958 10958 10957 10956 10954 10953 10952 10951 10950 10949 10948 10947 10946 10945 10943 10942 10941 10940 10939 10938 10937 10936 10936 10935 10935 10935 10934 10935 10935 10934 10934 10934 10934 10934 10934 10934 10934 10933 10933 10933 10932 10932 10932 10932 10931 10931 10931 10930 10930 10930 10930 10930 10930 10930
10973 10972 10971 10971 10971 10970 10970 10970 10971 10971 10972 10972 10973 10972 10972 10972 10971 10971 10971 10970 10970 10970 10970 10970 10969 10967 10966 10964 10963 10962 10961 10960 10959 10958 10957 10956 10955 10954 10952 10951 10950 10949 10949 10948 10947 10946 10944 10943 10942 10941 10940 10939 10939 10938 10937 10937 10937 10937 10937 10936 10936 10936 10936 10936 10936 10936 10935 10935 10934 10934 10934 10933 10933 10932 10932 10932 10931 10931 10930 10931 10931 10931 10931 10931 10931
10973 10972 10971 10971 10970 10970 10970 10971 10971 10972 10972 10973 10973 10973 10973 10973 10972 10972 10971 10971 10971 10971 10971 10971 10970 10968 10967 10966 10965 10964 10963 10962 10961 10960 10959 10958 10957 10955 10954 10953 10952 10951 10950 10949 10949 10948 10947 10946 10945 10944 10943 10942 10941 10941 10940 10939 10939 10939 10939 10938 10938 10938 10938 10937 10937 10937 10936 10936 10936 10935 10935 10935 10934 10933 10933 10933 10932 10932 10931 10931 10931 10931 10931 10931 10931
10972 10971 10971 10970 10970 10970 10970 10971 10971 10972 10973 10973 10974 10974 10974 10973 10973 10973 10972 10972 10972 10972 10973 10972 10971 10970 10968 10967 10967 10966 10965 10964 10963 10962 10961 10960 10959 10957 10956 10955 10954 10953 10952 10951 10950 10950 10949 10949 10948 10946 10946 10945 10944 10944 10943 10943 10942 10942 10941 10941 10941 10940 10940 10939 10939 10938 10938 10938 10937 10937 10937 10936 10936 10935 10934 10934 10934 10933 10933 10932 10932 10932 10932 10932 10932
10971 10971 10970 10970 10970 10970 10970 10971 10972 10973 10973 10974 10974 10974 10974 10974 10974 10974 10973 10973 10974 10974 10974 10973 10972 10971 10970 10969 10969 10968 10967 10966 10965 10964 10963 10962 10960 10959 10957 10956 10956 10955 10954 10953 10952 10952 10952 10952 10951 10950 10949 10948 10947 10946 10946 10946 10946 10945 10944 10944 10944 10943 10942 10942 10941 10941 10940 10940 10940 10939 10939 10938 10938 10937 10937 10936 10936 10935 10934 10934 10933 10933 10933 10932 10932
10971 10970 10970 10970 10970 10970 10971 10971 10972 10973 10974 10975 10975 10975 10975 10975 10975 10975 10975 10975 10975 10975 10975 10975 10974 10973 10972 10972 10971 10970 10969 10968 10967 10966 10965 10963 10962 10960 10959 10958 10958 10957 10956 10955 10955 10955 10955 10954 10954 10953 10952 10952 10951 10950 10949 10949 10949 10949 10948 10947 10947 10946 10945 10944 10944 10943 10943 10943 10943 10942 10942 10941 10941 10940 10939 10939 10938 10937 10937 10936 10935 10934 10934 10933 10933
10970 10970 10969 10969 10970 10970 10971 10972 10973 10974 10975 10975 10975 10975 10975 10975 10975 10976 10976 10976 10976 10977 10977 10976 10976 10975 10974 10974 10973 10972 10971 10970 10969 10968 10967 10965 10964 10963 10962 10961 10960 10960 10959 10958 10958 10958 10958 10957 10957 10956 10956 10955 10955 10954 10953 10953 10953 10953 10952 10951 10950 10949 10948 10947 10947 10947 10947 10947 10946 10946 10945 10944 10944 10943 10942 10941 10940 10939 10938 10938 10937 10936 10936 10935 10935
10969 10969 10969 10969 10970 10970 10971 10972 10973 10974 10975 10976 10976 10976 10976 10976 10976 10977 10977 10977 10978 10978 10978 10978 10978 10977 10977 10976 10975 10974 10973 10972 10971 10970 10968 10967 10966 10965 10964 10964 10963 10963 10962 10962 10961 10961 10961 10961 10960 10959 10959 10959 10959 10958 10957 10957 10957 10957 10956 10956 10955 10953 10952 10951 10951 10951 10951 10950 10950 10949 10948 10947 10947 10946 10945 10944 10943 10942 10941 10940 10939 10938 10937 10936 10936
10969 10969 10969 10969 10970 10971 10972 10973 10974 10975 10976 10976 10976 10976 10976 10976 10977 10977 10978 10978 10979 10980 10980 10980 10980 10979 10979 10978 10977 10976 10975 10974 10973 10972 10971 10970 10968 10968 10967 10967 10966 10966 10966 10966 10965 10965 10964 10964 10964 10964 10964 10963 10963 10962 10961 10961 10961 10961 10961 10960 10958 10957 10957 10956 10956 10956 10955 10955 10954 10953 10952 10951 10950 10949 10949 10947 10946 10945 10944 10943 10941 10940 10938 10937 10936
10968 10968 10969 10970 10970 10971 10972 10973 10975 10976 10976 10977 10977 10977 10977 10977 10978 10978 10979 10979 10980 10981 10982 10982 10982 10981 10981 10980 10979 10978 10977 10976 10975 10974 10973 10972 10971 10971 10970 10970 10969 10969 10969 10969 10969 10968 10968 10968 10968 10968 10968 10968 10967 10966 10966 10965 10965 10965 10964 10964 10963 10962 10961 10960 10960 10959 10959 10959 10957 10956 10955 10954 10954 10953 10952 10951 10950 10949 10947 10946 10944 10942 10941 10939 10938
10968 10968 10969 10970 10970 10972 10973 10974 10975 10976 10977 10977 10978 10978 10978 10978 10979 10979 10980 10980 10981 10983 10983 10984 10984 10983 10982 10981 10981 10980 10979 10978 10977 10976 10976 10975 10974 10974 10973 10973 10972 10972 10973 10973 10972 10972 10972 10972 10972 10972 10972 10972 10971 10970 10970 10969 10969 10968 10968 10968 10967 10967 10965 10964 10963 10963 10963 10962 10961 10960 10959 10958 10957 10957 10955 10954 10953 10952 10950 10949 10947 10945 10943 10942 10941
10967 10968 10969 10970 10971 10972 10973 10974 10976 10977 10977 10978 10978 10978 10978 10979 10980 10980 10981 10982 10983 10984 10985 10986 10986 10985 10984 10983 10982 10982 10981 10980 10979 10979 10978 10978 10977 10977 10976 10976 10976 10976 10976 10976 10976 10976 10976 10976 10976 10976 10976 10975 10975 10974 10974 10973 10972 10972 10972 10972 10971 10971 10969 10968 10967 10967 10967 10966 10964 10964 10963 10961 10961 10960 10959 10957 10956 10955 10953 10952 10950 10948 10946 10945 10944
10967 10968 10969 10970 10971 10973 10974 10975 10976 10977 10978 10978 10979 10979 10979 10980 10981 10981 10982 10983 10984 10986 10987 10987 10987 10987 10986 10985 10984 10983 10983 10982 10982 10981 10981 10981 10981 10980 10980 10980 10980 10979 10980 10980 10980 10980 10980 10980 10979 10979 10979 10978 10978 10977 10976 10976 10975 10975 10975 10975 10975 10974 10972 10971 10971 10971 10970 10969 10968 10968 10967 10965 10964 10964 10962 10961 10959 10958 10956 10955 10953 10952 10950 10949 10947
10967 10968 10969 10970 10972 10973 10974 10975 10976 10977 10978 10979 10979 10980 10980 10981 10982 10983 10983 10984 10986 10987 10988 10989 10989 10988 10988 10987 10986 10985 10985 10985 10984 10984 10984 10984 10984 10983 10983 10983 10983 10983 10983 10984 10983 10983 10983 10983 10983 10982 10981 10981 10980 10979 10979 10978 10978 10978 10978 10977 10977 10976 10975 10974 10973 10974 10973 10972 10971 10971 10970 10969 10968 10967 10966 10964 10962 10961 10960 10958 10957 10956 10954 10953 10951
10968 10968 10970 10971 10972 10974 10975 10976 10977 10978 10978 10979 10980 10980 10981 10982 10983 10984 10985 10986 10987 10989 10990 10990 10990 10990 10989 10989 10988 10987 10987 10987 10986 10986 10987 10986 10986 10987 10987 10986 10986 10987 10987 10987 10986 10986 10986 10986 10985 10985 10984 10984 10983 10982 10981 10981 10981 10980 10980 10980 10979 10978 10977 10976 10976 10976 10976 10975 10974 10974 10973 10972 10971 10970 10969 10967 10966 10964 10963 10962 10961 10959 10958 10957 10955
10968 10969 10970 10971 10973 10974 10975 10977 10978 10978 10979 10980 10980 10981 10982 10983 10984 10985 10986 10987 10989 10990 10991 10992 10992 10991 10991 10991 10990 10989 10989 10989 10989 10989 10989 10989 10989 10990 10990 10990 10990 10990 10990 10989 10989 10989 10989 10989 10988 10988 10987 10986 10986 10985 10984 10984 10983 10983 10982 10982 10981 10980 10979 10978 10978 10978 10978 10977 10977 10976 10975 10974 10974 10973 10971 10970 10969 10968 10967 10966 10964 10963 10962 10960 10959
10969 10970 10971 10972 10973 10974 10976 10977 10978 10979 10980 10981 10981 10982 10982 10984 10985 10987 10988 10989 10990 10992 10992 10993 10993 10993 10993 10992 10992 10991 10991 10991 10991 10991 10991 10991 10992 10992 10993 10993 10993 10993 10993 10992 10992 10992 10992 10991 10991 10990 10989 10989 10988 10987 10986 10986 10985 10985 10984 10984 10983 10982 10981 10981 10981 10980 10980 10979 10979 10978 10977 10976 10976 10975 10974 10972 10971 10970 10969 10968 10967 10966 10964 10963 10962
10970 10971 10972 10973 10974 10975 10976 10977 10979 10980 10981 10981 10982 10982 10983 10985 10986 10988 10989 10990 10991 10993 10994 10994 10995 10995 10994 10994 10993 10993 10993 10993 10993 10993 10993 10994 10994 10995 10995 10995 10995 10995 10995 10995 10994 10994 10994 10994 10993 10992 10991 10990 10989 10988 10988 10987 10987 10987 10987 10986 10985 10984 10983 10983 10983 10983 10982 10982 10981 10980 10979 10979 10978 10977 10976 10974 10973 10972 10971 10970 10969 10967 10966 10965 10964
10971 10971 10973 10974 10975 10976 10976 10978 10979 10981 10981 10982 10983 10983 10984 10986 10987 10989 10990 10991 10992 10994 10994 10995 10996 10996 10996 10995 10995 10995 10995 10995 10995 10995 10995 10996 10997 10997 10997 10998 10998 10997 10997 10997 10996 10996 10996 10996 10995 10994 10993 10992 10990 10990 10989 10989 10989 10989 10988 10987 10986 10986 10985 10986 10985 10985 10985 10984 10983 10982 10981 10981 10980 10979 10978 10976 10975 10974 10973 10972 10970 10969 10967 10966 10965
10972 10972 10973 10975 10976 10976 10977 10978 10979 10981 10982 10983 10984 10984 10985 10987 10988 10990 10991 10992 10993 10994 10995 10996 10997 10997 10997 10997 10997 10997 10997 10997 10997 10997 10997 10998 10999 10999 11000 11000 11000 10999 10999 10999 10998 10998 10998 10997 10997 10996 10995 10994 10992 10992 10991 10991 10991 10990 10989 10988 10988 10987 10988 10988 10987 10987 10987 10986 10985 10984 10983 10983 10982 10981 10979 10978 10976 10975 10974 10973 10972 10970 10969 10967 10966
10973 10973 10974 10975 10976 10977 10978 10978 10980 10981 10983 10984 10985 10985 10986 10987 10989 10990 10992 10993 10994 10995 10996 10997 10997 10998 10998 10998 10998 10999 10999 10999 10999 10999 10999 11000 11001 11001 11001 11002 11002 11002 11001 11001 11000 11000 10999 10999 10998 10998 10997 10996 10995 10995 10994 10993 10992 10991 10990 10990 10989 10990 10990 10990 10989 10989 10988 10988 10987 10986 10985 10984 10983 10982 10981 10979 10978 10977 10976 10974 10973 10971 10970 10968 10967
10973 10974 10975 10976 10977 10978 10979 10979 10980 10981 10983 10984 10985 10986 10986 10988 10989 10991 10992 10994 10995 10996 10996 10997 10998 10999 10999 10999 11000 11000 11000 11000 11000 11001 11001 11002 11002 11002 11003 11003 11003 11003 11003 11002 11002 11002 11001 11000 11000 11000 10999 10998 10998 10997 10996 10995 10993 10993 10992 10992 10992 10992 10992 10992 10991 10991 10990 10989 10988 10987 10987 10986 10985 10983 10982 10981 10980 10978 10977 10976 10974 10973 10971 10969 10968
10973 10974 10975 10976 10977 10979 10979 10980 10981 10982 10983 10984 10986 10986 10987 10988 10990 10992 10993 10994 10995 10996 10997 10998 10998 10999 11000 11000 11001 11001 11001 11002 11002 11002 11003 11003 11003 11004 11004 11005 11005 11005 11004 11004 11004 11003 11003 11002 11001 11001 11000 11000 11000 10999 10998 10997 10995 10995 10994 10994 10994 10994 10994 10994 10993 10993 10992 10991 10990 10989 10988 10987 10986 10985 10984 10982 10981 10980 10979 10977 10976 10974 10973 10971 10969
10974 10975 10976 10976 10977 10979 10980 10980 10981 10982 10983 10984 10986 10987 10988 10989 10990 10992 10993 10995 10996 10997 10998 10998 10999 11000 11000 11001 11002 11002 11002 11003 11003 11004 11004 11004 11005 11005 11006 11006 11006 11006 11006 11006 11005 11005 11004 11003 11003 11002 11001 11001 11000 11000 10999 10998 10997 10997 10997 10996 10996 10996 10996 10995 10995 10995 10994 10993 10992 10991 10990 10989 10987 10986 10985 10984 10983 10982 10980 10979 10977 10975 10974 10972 10970
10974 10975 10976 10976 10977 10979 10980 10981 10981 10982 10983 10984 10986 10987 10988 10989 10990 10992 10993 10995 10996 10998 10999 10999 11000 11000 11001 11002 11002 11003 11003 11004 11004 11005 11005 11005 11006 11007 11007 11007 11007 11007 11007 11007 11007 11006 11005 11005 11004 11004 11003 11002 11001 11001 11001 11000 11000 11000 11000 11000 10999 10999 10998 10997 10997 10996 10995 10994 10993 10992 10991 10990 10989 10988 10987 10986 10985 10983 10981 10980 10978 10976 10974 10973 10971
10974 10974 10975 10976 10977 10978 10980 10981 10982 10982 10983 10984 10986 10987 10988 10989 10990 10992 10993 10995 10996 10998 10999 11000 11000 11001 11001 11002 11003 11003 11004 11004 11005 11006 11006 11007 11007 11007 11008 11008 11008 11008 11008 11008 11008 11007 11007 11007 11006 11005 11005 11004 11003 11003 11002 11002 11001 11002 11002 11001 11001 11001 11000 10999 10998 10997 10996 10996 10995 10993 10992 10991 10990 10989 10988 10987 10985 10984 10982 10980 10979 10977 10975 10973 10971
10974 10974 10975 10976 10977 10978 10980 10981 10982 10983 10983 10984 10986 10987 10988 10990 10991 10992 10994 10995 10997 10998 10999 11000 11001 11001 11002 11002 11003 11004 11005 11005 11006 11006 11007 11008 11008 11008 11009 11009 11009 11009 11009 11009 11009 11009 11008 11008 11007 11007 11006 11006 11005 11004 11004 11003 11003 11003 11003 11002 11002 11002 11001 11000 10999 10998 10997 10997 10996 10995 10994 10992 10991 10990 10989 10987 10986 10984 10982 10981 10979 10977 10975 10973 10971
10974 10974 10974 10975 10976 10977 10979 10981 10982 10983 10983 10984 10985 10987 10988 10990 10991 10992 10994 10995 10996 10998 11000 11001 11001 11002 11002 11003 11004 11004 11005 11006 11006 11007 11008 11008 11009 11009 11010 11010 11010 11010 11010 11010 11010 11010 11010 11009 11009 11008 11008 11008 11007 11006 11006 11005 11005 11005 11004 11003 11003 11002 11002 11001 11000 10999 10998 10997 10996 10995 10994 10993 10992 10990 10989 10987 10986 10984 10982 10981 10979 10977 10975 10973 10972
10974 10974 10974 10974 10975 10976 10978 10980 10982 10983 10984 10984 10985 10986 10988 10989 10990 10992 10993 10995 10996 10998 10999 11001 11001 11002 11003 11003 11004 11005 11006 11007 11007 11008 11009 11009 11010 11010 11010 11011 11011 11011 11011 11011 11011 11011 11011 11010 11010 11010 11010 11009 11009 11008 11008 11007 11007 11007 11006 11005 11004 11003 11003 11002 11002 11001 10999 10998 10997 10996 10995 10993 10992 10991 10989 10988 10986 10984 10982 10980 10978 10976 10975 10973 10971
10973 10974 10974 10975 10975 10976 10977 10979 10981 10983 10984 10984 10985 10986 10987 10988 10990 10992 10994 10995 10996 10997 10999 11000 11001 11002 11003 11004 11005 11006 11006 11007 11008 11009 11009 11010 11010 11011 11011 11011 11011 11012 11012 11012 11012 11012 11012 11012 11012 11011 11011 11011 11010 11010 11010 11009 11009 11008 11008 11007 11006 11005 11004 11003 11003 11002 11001 11000 10998 10997 10996 10994 10993 10991 10989 10987 10985 10983 10981 10980 10978 10976 10975 10973 10970
10972 10973 10974 10974 10975 10976 10977 10978 10981 10983 10984 10985 10985 10986 10987 10988 10990 10992 10994 10995 10996 10997 10998 11000 11001 11002 11003 11004 11005 11006 11007 11008 11009 11010 11010 11011 11011 11012 11011 11012 11012 11012 11013 11013 11013 11013 11013 11013 11013 11013 11012 11012 11012 11011 11011 11010 11010 11009 11009 11008 11007 11006 11005 11004 11003 11002 11001 11000 10999 10998 10997 10995 10993 10991 10989 10987 10985 10983 10981 10979 10978 10976 10973 10971 10969
10971 10972 10973 10974 10974 10975 10976 10977 10979 10982 10983 10984 10985 10986 10986 10988 10990 10992 10993 10995 10996 10998 10999 11000 11001 11002 11003 11004 11005 11006 11008 11009 11010 11010 11011 11011 11012 11012 11012 11012 11013 11013 11013 11013 11014 11014 11014 11014 11014 11014 11013 11013 11013 11012 11012 11011 11010 11010 11009 11008 11008 11007 11006 11005 11003 11002 11001 11000 10998 10997 10996 10994 10992 10990 10988 10986 10984 10982 10980 10978 10976 10974 10971 10969 10967
10970 10971 10972 10973 10973 10973 10974 10976 10978 10980 10982 10984 10985 10985 10987 10988 10990 10991 10993 10994 10996 10998 10999 11000 11001 11003 11004 11004 11005 11007 11008 11009 11010 11011 11011 11012 11012 11012 11013 11013 11013 11013 11014 11014 11014 11014 11015 11015 11015 11014 11014 11014 11013 11013 11012 11012 11011 11011 11010 11008 11007 11007 11005 11004 11003 11001 11000 10999 10997 10996 10994 10992 10991 10989 10987 10985 10983 10981 10979 10976 10974 10972 10969 10967 10965